Location: ????????
(55.7667°N, 37.4833°E)
Time: 14:41:38
(UTC+00:00)

NOSS 2-2 (E) - Pass Details

Date: 19 May 2025
Orbit: 390 x 1730 km, 63.3° (Epoch: 20 June)

Event Time Altitude Azimuth Distance (km) Brightness Sun altitude
Rises 23:28:40 0° 306° (NW) 2,492 6.8 -10.0°
Reaches altitude 10° 23:30:35 10° 300° (WNW) 1,715 5.9 -9.8°
Maximum altitude 23:34:13 48° 225° (SW) 788 3.7 -9.6°
Drops below altitude 10° 23:39:04 10° 152° (SSE) 2,298 6.2 -9.2°
Sets 23:41:59 0° 148° (SSE) 3,459 7.1 -9.0°
